sat.trackr.live / text

‹ back to catalog

VIZARD-ION (RS68S)

NORAD 61749 · 2024-199Q

PAYLOAD ACTIVE UNKNOWN

§ Identity

Operator
Country
CIS
Launch date
2024-11-04
Launch site
VOSTO
Launch vehicle
Mass (kg)
RCS (m²)

External: N2YO · Heavens-Above · Gunter

§ Orbital elements

Epoch: 2026-09-22T22:08:31.882272Z

Period
92.17 min
Inclination
97.2794°
Eccentricity
0.0002619
Mean motion
15.62295585 rev/d
Perigee alt
379.3 km
Apogee alt
382.8 km
Semi-major
6,759.2 km
B*
4.3329e-4
RAAN
144.5421°
Arg perigee
260.0617°
Mean anomaly
100.0346°
Rev number
15,279

§ Raw data

VIZARD-ION (RS68S)1 61749U 24199Q   26265.92259123  .00038223  00000+0  43329-3 0  99972 61749  97.2794 144.5421 0002619 260.0617 100.0346 15.62295585152794

JSON: /api/v1/satellites/61749 · /tle

For live sub-satellite position, see the globe view (requires WebGL).

§ Visibility from observer

Set your observer location to see the next 7 days of passes ≥ 10°. The values pass through the URL so the page stays shareable.

No JS? Fill the form by hand. The geolocation button needs JavaScript.

§ Radio — SatNOGS DB

ModeDescriptionDownlinkUplink
GFSK Mode U - GFSK9k6 - AX.25 Beacon and Telemetry (Geoscan framing) 436.870 MHz
DVB-S2 Mode X - DVB-S2 10.475 GHz
CW Mode U - CW Beacon (inactive) 436.870 MHz

3 transmitters · refreshed weekly from db.satnogs.org